Вернуться в каталог

SL-8 R/B

АктивенPO
NORAD 21090·ROCKET BODY·🇷🇺 Russia

Запущен Feb 5, 1991 с Plesetsk Cosmodrome

Loading…

Ближайшие Пролёты (ближайшие 24 часа)

TLE

СвежийSource: Space-Track

Эпоха: Sep 14, 2026, 08:28 UTC

1 21090U 91007B   26257.35342874 -.00000042  00000-0 -58323-4 0  9990
2 21090  82.9168 243.8026 0019625 319.9407  40.0301 13.76688572788171

Отслеживайте SL-8 R/B в реальном времени с AllMySat

Download on the App Store